Theta_e
322 322 322 324 325 326 326 326 328 329 328 330 328 329 327 326 324 318 314 322 324 327 325 317 320 315 310 307 309 309 298 295 299 301 303 302 301 304 306 308 309 314 313 319 328
322 322 322 323 325 326 327 327 325 328 328 329 328 327 326 325 316 313 326 331 329 328 318 315 313 311 305 306 305 306 298 298 306 306 304 303 302 305 304 304 306 318 324 328 328
321 321 321 322 324 325 326 326 325 326 327 328 326 327 326 323 313 313 330 331 330 326 318 317 314 310 305 305 304 303 300 305 307 309 305 305 302 306 305 302 308 314 320 325 326
320 321 320 321 323 324 325 325 324 324 326 327 326 326 324 319 297 316 330 331 330 321 317 315 311 306 303 300 304 297 303 308 309 311 304 304 305 303 302 304 310 321 324 324 324
319 320 320 321 321 323 324 324 324 322 324 326 326 325 320 310 309 320 329 329 323 319 314 311 309 306 303 302 303 300 300 304 308 305 305 304 302 303 302 304 305 321 324 322 323
318 318 319 320 320 321 323 323 323 322 322 325 325 324 315 303 317 322 324 321 320 316 314 313 310 311 307 304 303 304 303 304 305 303 303 301 300 301 304 304 304 321 321 322 322
317 318 318 319 320 321 321 322 322 322 323 324 325 320 312 309 318 322 323 318 319 316 312 315 315 311 310 304 307 305 301 304 304 303 300 302 296 297 303 302 304 314 320 321 322
317 317 317 318 319 319 320 321 321 321 322 321 323 317 306 318 320 322 321 318 318 317 313 314 315 308 306 303 304 300 299 296 305 300 301 300 296 300 303 300 300 305 311 318 320
316 316 317 318 317 318 319 320 319 321 321 320 309 306 301 318 312 320 319 315 315 314 315 316 312 305 302 298 295 296 294 294 299 304 299 295 293 302 305 300 299 300 306 313 317
316 316 316 317 316 318 318 317 318 315 314 313 311 301 306 304 312 315 319 316 311 311 309 308 304 300 298 295 292 291 292 295 297 301 299 294 293 299 302 300 300 298 301 305 312
316 316 316 316 316 317 315 309 301 299 302 296 299 299 304 311 314 312 315 311 311 307 299 301 297 292 295 297 298 298 297 298 299 303 300 298 295 297 300 296 296 298 299 303 309
315 315 316 315 316 316 310 301 300 301 294 301 301 302 306 309 301 308 313 305 303 297 297 295 292 298 299 299 297 297 296 296 302 301 296 296 293 296 297 295 297 299 298 301 307
315 314 314 314 314 311 305 302 308 304 291 296 298 299 301 304 299 303 308 305 300 297 296 293 295 300 299 297 296 295 294 295 297 294 297 290 288 292 295 296 297 298 299 302 306
314 314 314 313 306 306 303 308 308 303 279 286 293 297 301 302 295 306 310 305 299 296 296 295 298 297 297 296 298 293 298 297 296 290 287 291 284 290 294 295 296 298 299 302 301
313 313 313 311 301 301 305 307 306 295 262 285 293 304 302 295 295 298 306 304 296 296 296 292 295 295 294 296 300 295 302 298 295 291 291 288 286 290 293 293 295 297 299 301 299
312 312 312 305 303 305 308 305 298 276 265 285 294 293 294 295 294 299 298 301 301 296 295 293 295 298 297 294 299 300 297 290 292 288 283 289 286 284 293 294 296 298 299 299 299
312 311 307 305 298 307 306 298 278 267 280 285 288 292 291 290 291 293 292 292 289 284 285 286 289 293 296 290 294 296 290 283 281 281 281 287 284 290 293 296 298 298 298 299 300
311 310 306 304 307 306 301 287 266 272 276 290 290 290 287 290 290 291 290 288 293 291 286 284 280 289 294 292 290 293 292 284 278 278 280 282 282 290 297 298 295 297 298 298 299
310 304 302 304 307 305 292 279 272 275 286 286 287 285 285 289 289 289 288 287 290 292 287 286 286 291 293 294 294 288 287 292 283 278 278 283 283 289 292 293 292 292 291 293 296
302 300 298 306 307 300 287 280 279 288 287 286 277 282 277 282 287 287 287 291 289 293 296 292 285 290 292 295 294 292 294 285 285 277 276 280 279 288 289 291 290 290 290 291 293
299 293 301 307 305 293 282 281 284 291 290 284 282 282 286 285 287 287 286 291 292 292 296 295 289 285 290 288 287 287 287 288 287 284 279 275 279 287 291 294 292 290 290 291 293
294 286 302 305 289 289 283 284 289 285 289 287 286 285 281 284 284 285 286 289 294 295 291 294 290 280 284 290 293 291 290 290 286 281 281 280 281 286 287 291 291 290 291 290 294
289 290 301 300 281 283 284 284 285 284 284 286 284 286 287 284 278 285 287 292 294 294 292 295 287 279 281 285 288 288 290 292 291 286 280 279 281 287 287 288 287 289 290 291 294
290 283 289 291 285 281 279 280 280 286 284 287 286 288 285 283 286 284 285 290 291 292 292 298 288 285 280 284 286 284 286 290 290 283 281 281 284 285 284 287 287 288 291 293 295
286 284 287 282 281 282 283 282 280 280 284 285 283 284 283 278 282 282 286 287 290 292 293 294 286 288 290 289 288 287 287 287 289 290 284 286 285 289 287 287 288 288 289 293 294
285 284 287 285 285 282 283 280 281 282 282 280 280 283 284 282 282 281 285 285 285 288 285 292 285 285 285 286 288 286 288 288 290 291 290 289 287 295 291 289 289 288 289 293 295
287 290 286 286 281 279 280 281 282 284 284 285 284 283 283 285 289 289 289 290 288 286 286 284 284 283 283 284 286 282 286 288 288 291 291 287 292 293 291 290 290 289 290 292 294
Wind_Speed
18 17 15 14 13 13 13 10 8 11 9 10 10 11 10 9 9 3 4 4 5 5 5 4 9 6 5 4 3 5 2 3 5 3 5 4 5 2 0 5 5 4 4 7 13
20 17 16 16 14 13 14 12 9 10 10 11 12 12 11 7 1 4 6 9 10 8 4 6 5 5 4 4 2 4 3 6 3 4 4 5 4 7 5 3 4 5 8 17 16
22 19 17 17 15 15 15 13 10 9 11 13 13 12 11 6 2 6 14 11 8 3 4 4 14 6 4 4 3 5 5 5 7 10 7 5 4 4 9 4 7 10 11 12 10
22 20 18 16 15 15 15 15 12 9 12 14 13 12 12 1 6 2 17 14 11 6 4 9 6 7 6 4 3 3 8 11 10 8 4 4 5 5 6 7 9 19 19 11 15
24 21 19 17 16 15 15 16 14 11 10 14 16 15 7 4 3 3 15 10 6 6 3 9 10 6 6 4 2 2 6 5 15 8 5 3 5 6 8 6 3 16 17 16 16
24 21 19 17 17 15 15 17 16 13 10 10 19 15 4 7 2 7 11 10 6 5 3 3 4 7 8 5 5 6 7 15 10 5 5 3 5 5 8 6 5 19 17 15 17
27 23 21 18 17 15 15 16 16 15 12 10 18 8 3 7 3 8 12 3 5 5 6 3 3 5 8 6 2 2 1 10 13 8 5 2 7 8 8 6 10 14 15 15 16
28 25 23 20 19 17 17 16 16 16 15 13 16 3 4 1 0 11 6 5 7 7 6 3 7 8 5 1 6 5 1 6 12 8 6 10 15 11 10 8 10 11 11 14 15
30 27 25 23 20 18 21 18 17 19 16 13 6 4 5 1 5 8 6 9 7 5 6 5 5 2 4 6 5 5 4 6 5 10 6 8 6 12 10 11 12 12 13 14 14
30 29 27 24 22 21 22 20 18 15 8 8 4 7 5 6 5 6 4 12 5 10 5 3 4 3 5 4 12 6 2 6 14 10 14 10 12 10 8 10 15 10 10 11 13
32 31 29 26 24 25 22 13 8 4 5 7 8 1 8 7 5 6 6 8 6 5 8 3 5 12 11 11 10 9 9 12 8 15 12 23 19 18 15 6 10 12 12 12 16
34 33 31 28 26 27 15 8 10 9 7 8 4 7 4 4 5 9 12 7 7 7 9 4 19 15 8 9 10 16 12 12 9 9 5 12 19 17 14 8 10 16 11 13 16
36 35 33 30 28 18 15 7 7 7 7 6 6 5 7 5 5 16 14 9 7 11 12 15 4 15 14 9 9 10 10 12 13 5 10 4 12 17 10 13 8 9 10 14 18
38 37 34 32 19 15 15 4 8 5 7 3 7 7 5 7 4 5 17 5 5 15 14 15 8 18 14 16 15 11 11 12 7 1 7 8 9 11 20 18 15 18 18 18 12
39 38 37 30 14 18 23 6 7 8 5 7 8 4 10 12 9 9 9 7 13 8 6 9 13 17 18 21 19 7 4 11 2 3 6 10 7 8 10 20 20 24 20 18 13
41 39 37 14 9 17 14 6 7 9 8 5 8 13 13 11 0 7 6 1 4 7 4 6 6 13 12 6 8 9 5 8 4 3 7 13 12 7 12 15 20 16 19 18 15
42 40 27 13 14 15 16 7 6 7 5 8 7 14 15 12 15 7 17 15 11 6 9 3 2 4 7 9 2 10 12 2 4 4 12 6 10 17 5 11 20 23 20 17 15
42 37 22 5 18 21 12 10 6 7 7 4 7 15 13 11 10 15 9 13 17 6 4 10 6 11 7 7 11 18 16 6 6 7 5 5 16 15 16 12 7 9 12 13 16
42 13 13 10 19 16 15 13 10 8 9 10 7 6 3 14 5 14 18 18 12 14 8 8 8 8 10 2 12 6 10 10 1 2 2 7 8 10 9 8 7 7 8 10 12
14 13 12 16 20 15 13 12 4 4 10 8 8 5 8 9 12 16 15 15 21 21 12 5 4 12 7 3 1 6 14 7 3 2 6 6 7 12 11 14 8 9 11 8 6
15 11 11 18 15 13 15 7 4 6 8 6 7 6 5 6 11 12 11 9 26 20 18 9 2 4 8 9 13 6 7 5 6 4 4 3 9 7 14 18 17 11 9 11 10
7 8 13 17 12 9 8 10 6 7 4 4 5 6 6 6 2 3 9 9 17 19 26 12 4 5 8 4 7 1 10 10 8 8 6 3 9 3 5 8 10 10 9 8 9
8 7 6 16 9 9 5 5 4 5 6 5 5 4 5 6 1 6 1 4 16 19 13 14 6 4 6 2 3 5 12 12 8 6 8 4 8 2 3 5 3 9 8 8 8
9 9 3 5 3 8 8 5 6 5 4 6 6 7 6 5 4 4 3 4 9 7 24 14 6 10 13 13 11 16 22 24 18 9 3 11 7 6 4 6 5 5 5 7 10
4 5 4 17 9 8 8 7 9 7 5 9 5 9 8 5 6 9 8 10 8 4 17 8 15 17 21 9 17 15 24 21 25 23 17 8 8 13 5 9 11 9 7 7 9
6 8 4 12 12 11 11 10 16 6 9 6 7 9 7 9 10 2 5 7 6 3 6 3 5 5 11 8 20 17 23 28 27 23 16 13 15 15 3 2 6 9 11 11 11
1 5 7 14 8 6 10 9 9 11 8 6 8 6 12 17 14 14 11 4 13 6 7 1 8 6 12 4 11 13 28 31 25 25 30 19 29 14 14 11 11 10 11 14 15
Wind_Direction
216 214 211 208 193 187 187 171 174 179 182 161 157 137 122 129 128 130 196 253 161 149 94 110 45 4 43 14 50 0 95 224 244 232 232 201 133 75 159 113 60 21 150 169 152
209 209 208 209 196 192 184 177 156 180 174 164 161 150 141 156 119 198 160 132 145 161 111 136 107 51 55 350 0 113 193 217 252 325 254 192 149 145 109 114 70 55 27 134 137
204 205 205 207 198 186 188 173 157 177 172 162 171 157 147 172 131 235 173 155 170 148 83 92 105 73 57 2 286 204 215 243 287 280 305 181 176 185 129 211 198 163 151 151 153
200 198 197 206 195 183 183 165 153 145 174 165 154 149 157 198 192 300 165 146 147 132 96 118 93 99 115 185 296 11 235 236 274 284 250 192 147 174 165 212 182 162 161 155 175
199 194 190 196 185 181 184 175 159 147 145 168 152 150 140 175 253 110 127 123 109 145 203 136 121 125 159 182 85 201 290 276 238 289 228 351 225 193 221 228 146 147 157 168 181
193 191 184 183 174 175 185 177 156 147 144 155 157 146 133 184 120 137 134 132 142 132 148 237 179 131 112 159 202 207 289 298 317 221 287 188 260 161 241 195 152 156 173 175 179
190 186 180 171 166 173 180 172 155 143 130 124 161 156 189 191 119 129 144 161 135 116 136 7 153 108 121 145 158 105 278 275 284 264 236 135 287 232 233 157 168 182 178 179 190
188 181 176 170 162 171 166 157 152 148 129 112 152 133 216 348 45 134 122 83 68 56 78 83 78 78 66 154 81 159 133 203 233 249 229 161 252 232 232 199 207 200 184 186 190
184 177 172 168 157 163 151 141 141 136 128 125 84 122 207 68 163 175 135 138 104 89 87 101 75 86 116 135 106 239 185 202 251 229 208 180 246 229 228 201 219 206 196 191 195
179 174 170 165 158 158 145 126 121 111 122 80 56 102 170 181 138 117 154 132 119 117 110 158 101 173 128 170 206 166 193 210 223 204 213 216 242 271 243 202 223 197 209 195 192
174 170 164 161 159 151 138 123 116 127 217 164 170 134 132 97 82 141 180 124 148 176 169 171 175 209 177 176 261 309 214 234 214 232 216 228 232 229 249 228 219 206 202 206 202
171 166 163 160 157 151 149 166 168 150 158 251 137 225 68 178 117 166 154 164 166 182 119 144 228 214 187 182 196 257 261 236 265 253 271 241 241 230 230 227 210 206 211 208 210
169 162 159 156 153 153 168 175 155 142 125 187 191 175 168 155 192 173 183 174 207 192 188 206 202 188 194 197 197 217 241 241 235 195 204 283 264 241 239 230 227 226 214 213 203
165 158 156 151 150 162 174 195 134 118 79 223 173 220 125 122 251 139 191 178 210 215 191 227 195 186 194 194 191 227 197 255 302 38 221 186 270 226 219 224 217 220 220 218 193
161 156 154 155 134 172 162 151 113 60 84 208 163 157 155 171 140 195 175 136 209 196 169 201 172 177 194 197 178 207 190 235 187 296 303 252 244 262 194 221 210 218 216 216 200
158 156 150 144 131 158 155 130 59 59 239 144 140 168 160 199 336 121 149 181 56 198 236 234 299 180 182 66 181 109 99 48 43 93 248 221 224 230 208 199 216 218 214 209 202
156 155 151 144 152 142 141 133 84 148 261 172 160 175 182 179 211 161 184 188 188 161 193 128 263 319 146 102 24 130 111 193 202 194 232 211 224 245 245 201 204 209 209 206 206
154 150 150 125 141 142 147 134 120 199 194 142 130 166 184 169 205 205 179 189 193 176 138 180 221 188 191 183 169 175 155 168 212 203 254 157 233 246 224 235 254 217 210 194 200
144 142 146 149 141 145 145 179 195 182 147 141 100 151 178 197 149 189 212 217 192 193 178 180 215 177 199 154 155 172 164 125 187 303 329 215 273 303 232 230 221 178 157 183 202
132 140 150 151 146 150 162 191 160 136 140 133 142 164 169 189 184 186 179 216 222 196 198 191 210 197 177 150 66 208 141 126 147 188 259 257 260 226 202 222 206 199 186 180 149
125 130 154 149 144 158 189 173 151 163 127 126 159 146 140 161 202 204 211 212 200 191 197 163 187 146 157 205 168 144 153 132 107 169 257 300 262 232 205 215 206 190 187 173 171
106 117 152 148 158 176 160 165 148 164 107 101 91 100 131 157 146 167 239 217 204 195 201 205 160 176 207 214 211 194 180 156 174 185 231 251 276 310 299 221 178 181 185 187 168
100 98 157 162 167 161 154 142 104 144 148 123 115 142 172 162 174 182 228 337 288 205 205 171 175 163 145 30 353 197 181 170 144 84 226 198 263 323 317 355 148 162 188 179 155
126 125 120 166 99 129 129 150 149 199 129 125 145 143 144 178 204 256 244 237 359 322 309 204 168 189 209 211 143 187 188 192 166 156 231 233 291 270 231 227 232 176 171 159 165
52 86 122 171 190 149 136 133 167 161 183 162 200 173 166 188 195 224 238 272 226 270 303 255 207 214 238 216 182 196 187 184 198 179 194 205 232 269 244 223 214 195 169 167 174
112 134 87 128 124 122 168 189 181 167 151 210 194 177 186 209 199 30 185 209 237 191 342 269 212 152 236 206 186 190 190 187 199 203 222 236 258 279 303 159 194 196 173 186 193
353 65 98 147 134 120 200 172 162 157 218 172 187 164 212 225 237 249 268 314 287 258 178 256 321 186 229 237 201 205 190 188 195 202 210 207 222 199 216 226 209 201 190 198 197